SCP
0 0 0 2 3 4 5 4 3 2 1 1 1 1 1 1 1 1 0 0 0 0 0 0 0 0 0 0 0 0 0 0
0 0 0 1 1 4 4 4 3 2 1 1 1 1 0 1 1 0 0 0 0 0 0 0 0 0 0 0 0 0 0 0
-0 -0 0 0 0 2 3 2 2 1 1 0 1 0 0 0 0 0 0 0 0 0 0 0 0 0 0 0 0 0 0 0
0 0 0 0 0 1 1 1 1 1 0 0 0 0 0 0 0 0 0 0 0 0 0 0 0 0 0 0 0 0 0 0
0 0 0 0 0 0 0 1 0 0 0 0 0 0 0 0 0 0 0 0 0 0 0 0 0 0 0 0 0 0 0 0
0 0 -0 0 0 0 0 0 0 0 0 0 0 0 0 0 0 0 0 0 0 0 0 0 0 0 0 0 0 0 0 0
-0 -0 -0 0 0 0 0 0 0 0 0 0 0 0 0 0 0 0 0 0 0 0 0 -0 -0 0 0 0 0 0 0 -0
-0 -0 0 0 0 0 0 0 0 0 -0 0 0 0 0 0 0 0 0 0 0 0 0 -0 -0 0 0 0 0 0 0 -0
-0 -0 -0 0 0 0 0 0 0 -0 0 0 0 0 -0 -0 0 0 0 0 -0 0 0 0 -0 -0 -0 -0 -0 0 0 -0
-0 -0 0 0 0 0 0 -0 0 0 -0 -0 -0 -0 0 0 -0 0 0 -0 -0 -0 0 -0 -0 -0 -0 -0 -0 -0 -0 -0
-0 -0 -0 0 0 0 -0 0 0 0 -0 -0 -0 0 -0 0 0 0 0 0 0 0 0 0 -0 -0 -0 -0 -0 -0 -0 0
-0 0 0 0 0 0 0 0 0 -0 -0 -0 -0 -0 -0 0 0 0 0 0 0 0 0 0 -0 -0 -0 -0 -0 -0 -0 -0
-0 -0 -0 0 0 0 0 0 -0 -0 -0 -0 -0 -0 -0 0 0 0 0 0 0 0 0 0 -0 -0 -0 -0 -0 -0 -0 -0
0 0 0 0 0 0 0 0 0 -0 -0 -0 -0 -0 0 0 0 0 -0 -0 0 0 -0 0 0 -0 -0 -0 -0 -0 -0 -0
0 0 0 0 0 0 0 0 0 -0 -0 -0 0 -0 -0 -0 0 0 0 0 -0 -0 0 -0 -0 -0 -0 -0 -0 -0 -0 -0
0 0 0 0 0 0 0 0 0 -0 -0 -0 0 -0 -0 0 0 0 0 0 0 0 -0 0 -0 -0 -0 -0 -0 -0 -0 -0
0 0 0 0 0 -0 -0 -0 -0 0 0 -0 -0 -0 -0 0 -0 -0 0 0 0 0 0 0 0 -0 -0 -0 -0 -0 -0 -0
0 0 0 0 0 0 0 0 0 0 -0 -0 -0 0 0 0 0 0 0 0 0 0 0 0 -0 -0 -0 -0 -0 0 0 -0
0 0 0 0 0 0 0 0 0 0 0 -0 -0 -0 -0 0 0 0 0 -0 -0 -0 -0 -0 -0 -0 -0 -0 0 0 0 0
0 0 0 0 0 0 0 0 0 -0 0 0 -0 0 -0 -0 -0 -0 -0 -0 -0 -0 -0 -0 -0 -0 -0 -0 0 0 0 -0
Wind_Speed_500mb
74 71 91 35 38 54 62 62 56 50 39 46 51 56 54 54 52 46 48 42 41 37 29 27 29 22 19 19 17 23 28 28
59 83 76 48 45 55 60 61 58 51 55 54 54 58 57 55 57 55 44 44 37 34 35 27 24 24 20 16 16 19 24 25
88 47 56 59 60 71 64 63 60 59 59 59 63 53 53 54 49 43 44 43 38 32 31 31 27 20 19 22 20 24 22 21
61 32 24 30 52 56 71 65 68 70 61 56 56 59 55 53 48 44 39 36 36 34 37 30 21 19 22 22 24 16 12 14
52 31 22 31 77 70 71 74 67 72 70 65 60 55 52 46 41 38 39 36 39 37 28 23 21 23 20 17 12 7 7 13
40 31 15 28 70 78 80 81 78 68 64 59 54 50 48 41 41 42 40 39 36 29 25 22 19 16 14 14 10 10 16 23
43 41 3 25 44 73 83 78 74 69 63 57 51 49 44 44 47 44 39 37 33 32 26 20 14 14 16 15 13 15 18 23
65 51 9 61 46 88 77 68 59 62 62 61 46 41 42 45 44 44 36 30 30 26 25 19 13 14 19 17 14 10 18 19
68 57 24 67 71 65 70 61 61 62 62 43 46 38 41 44 42 35 28 26 29 28 23 16 15 17 19 18 15 11 15 20
60 59 33 57 72 73 65 59 67 63 51 45 40 40 47 44 39 33 33 29 32 29 24 21 12 16 16 17 15 15 16 15
48 55 38 49 59 57 65 79 66 61 52 43 42 40 47 41 35 41 36 30 33 28 23 21 17 16 13 18 19 19 19 19
50 10 54 38 43 55 64 62 60 56 51 49 52 42 41 35 32 31 35 34 32 32 27 22 19 19 16 19 21 23 24 19
39 58 71 57 61 64 57 55 59 55 46 43 49 46 39 35 32 31 30 28 32 33 27 20 12 25 21 15 17 20 26 35
40 33 54 67 71 61 55 58 54 47 47 48 40 33 33 29 28 27 28 27 29 24 21 16 20 20 25 20 20 30 40 41
5 34 72 69 58 56 57 54 48 42 47 42 45 42 37 38 34 33 41 38 30 33 24 16 21 23 26 23 25 36 38 34
9 23 32 58 59 67 58 54 41 46 44 43 43 36 32 38 33 31 33 39 43 40 30 24 30 27 31 30 36 36 33 32
25 23 17 57 65 56 62 57 52 44 42 44 46 41 37 36 33 33 34 37 41 39 40 41 34 36 34 40 38 28 26 26
23 34 44 59 60 66 54 54 46 44 37 37 51 42 46 41 37 32 28 32 37 39 45 43 41 47 52 50 39 31 24 24
47 67 65 52 54 51 39 43 39 37 46 40 48 42 50 45 41 35 34 35 36 38 37 40 39 43 51 44 36 29 29 28
42 57 53 57 63 77 38 46 45 43 50 55 47 45 41 41 43 42 39 41 42 43 39 39 37 37 42 38 28 27 27 21
Wind_Direction_500mb
309 289 284 205 185 178 176 177 177 174 178 186 181 182 183 187 183 175 167 165 159 159 157 178 193 197 202 228 242 237 244 245
285 285 264 226 212 184 169 169 171 172 178 176 173 171 174 175 168 170 167 158 155 168 171 183 191 191 203 220 245 247 254 254
289 249 248 227 223 188 173 173 166 171 171 166 160 161 162 159 158 157 155 158 163 173 175 168 180 200 212 236 255 269 263 241
294 299 270 243 217 171 160 165 162 157 158 156 159 160 154 151 149 158 160 171 168 172 172 179 188 203 227 248 263 247 235 217
335 309 268 170 149 186 160 151 151 151 150 151 154 153 151 149 155 161 165 168 167 171 181 192 203 214 237 243 218 193 147 151
329 339 311 195 170 158 150 145 146 143 147 148 151 157 156 156 161 162 167 169 172 181 182 194 208 215 213 194 167 144 138 134
311 329 311 223 162 146 140 141 142 142 147 153 160 158 154 161 165 166 174 175 172 180 194 197 201 196 183 177 165 160 156 152
326 325 248 160 160 143 142 142 148 148 158 160 159 156 160 165 162 164 170 177 176 181 182 179 173 182 171 172 168 164 179 170
328 324 296 168 150 141 145 144 153 161 164 151 152 155 162 166 164 165 174 172 170 168 172 167 171 171 172 171 178 191 184 173
329 317 275 172 154 145 148 148 145 144 142 141 145 157 166 163 166 169 165 166 173 171 174 152 155 153 157 152 157 167 163 171
314 318 241 167 153 153 146 138 138 138 143 143 147 153 158 162 166 169 176 177 185 185 189 165 162 156 155 152 154 158 161 162
319 226 217 177 155 147 139 138 138 142 143 145 151 157 152 151 165 182 183 186 192 193 182 167 177 165 161 156 163 169 172 158
249 200 190 160 148 147 141 141 143 143 148 150 148 153 157 169 176 180 185 188 197 203 192 175 190 165 152 152 164 172 167 163
207 237 148 153 151 141 145 144 149 148 151 154 153 160 169 172 175 168 163 165 170 181 178 178 168 155 145 139 138 141 148 152
120 114 144 145 142 146 143 148 151 150 156 156 159 160 162 167 162 158 145 140 147 146 154 130 156 144 149 146 139 143 152 153
117 118 123 147 156 151 157 155 156 161 159 159 159 155 150 149 145 150 151 150 149 150 147 148 147 145 145 138 137 133 138 151
248 281 208 163 157 157 164 159 161 171 174 177 172 162 159 146 136 132 141 150 153 153 149 146 144 141 137 132 126 122 126 132
123 130 137 148 149 157 168 168 169 165 171 176 181 163 159 157 150 150 144 144 158 153 150 148 146 149 145 138 131 126 125 120
93 109 125 123 144 146 154 169 160 164 170 157 158 155 162 159 157 149 144 144 146 148 150 153 154 156 151 141 142 139 143 131
109 113 113 118 135 160 173 144 159 162 168 164 165 163 161 169 156 149 144 142 133 135 140 141 145 151 153 154 146 142 152 173
Wind_Speed_850mb
74 71 91 35 38 54 62 62 56 50 39 46 51 56 54 54 52 46 48 42 41 37 29 27 29 22 19 19 17 23 28 28
59 83 76 48 45 55 60 61 58 51 55 54 54 58 57 55 57 55 44 44 37 34 35 27 24 24 20 16 16 19 24 25
88 47 56 59 60 71 64 63 60 59 59 59 63 53 53 54 49 43 44 43 38 32 31 31 27 20 19 22 20 24 22 21
61 32 24 30 52 56 71 65 68 70 61 56 56 59 55 53 48 44 39 36 36 34 37 30 21 19 22 22 24 16 12 14
52 31 22 31 77 70 71 74 67 72 70 65 60 55 52 46 41 38 39 36 39 37 28 23 21 23 20 17 12 7 7 13
40 31 15 28 70 78 80 81 78 68 64 59 54 50 48 41 41 42 40 39 36 29 25 22 19 16 14 14 10 10 16 23
43 41 3 25 44 73 83 78 74 69 63 57 51 49 44 44 47 44 39 37 33 32 26 20 14 14 16 15 13 15 18 23
65 51 9 61 46 88 77 68 59 62 62 61 46 41 42 45 44 44 36 30 30 26 25 19 13 14 19 17 14 10 18 19
68 57 24 67 71 65 70 61 61 62 62 43 46 38 41 44 42 35 28 26 29 28 23 16 15 17 19 18 15 11 15 20
60 59 33 57 72 73 65 59 67 63 51 45 40 40 47 44 39 33 33 29 32 29 24 21 12 16 16 17 15 15 16 15
48 55 38 49 59 57 65 79 66 61 52 43 42 40 47 41 35 41 36 30 33 28 23 21 17 16 13 18 19 19 19 19
50 10 54 38 43 55 64 62 60 56 51 49 52 42 41 35 32 31 35 34 32 32 27 22 19 19 16 19 21 23 24 19
39 58 71 57 61 64 57 55 59 55 46 43 49 46 39 35 32 31 30 28 32 33 27 20 12 25 21 15 17 20 26 35
40 33 54 67 71 61 55 58 54 47 47 48 40 33 33 29 28 27 28 27 29 24 21 16 20 20 25 20 20 30 40 41
5 34 72 69 58 56 57 54 48 42 47 42 45 42 37 38 34 33 41 38 30 33 24 16 21 23 26 23 25 36 38 34
9 23 32 58 59 67 58 54 41 46 44 43 43 36 32 38 33 31 33 39 43 40 30 24 30 27 31 30 36 36 33 32
25 23 17 57 65 56 62 57 52 44 42 44 46 41 37 36 33 33 34 37 41 39 40 41 34 36 34 40 38 28 26 26
23 34 44 59 60 66 54 54 46 44 37 37 51 42 46 41 37 32 28 32 37 39 45 43 41 47 52 50 39 31 24 24
47 67 65 52 54 51 39 43 39 37 46 40 48 42 50 45 41 35 34 35 36 38 37 40 39 43 51 44 36 29 29 28
42 57 53 57 63 77 38 46 45 43 50 55 47 45 41 41 43 42 39 41 42 43 39 39 37 37 42 38 28 27 27 21
Wind_Direction_850mb
309 289 284 205 185 178 176 177 177 174 178 186 181 182 183 187 183 175 167 165 159 159 157 178 193 197 202 228 242 237 244 245
285 285 264 226 212 184 169 169 171 172 178 176 173 171 174 175 168 170 167 158 155 168 171 183 191 191 203 220 245 247 254 254
289 249 248 227 223 188 173 173 166 171 171 166 160 161 162 159 158 157 155 158 163 173 175 168 180 200 212 236 255 269 263 241
294 299 270 243 217 171 160 165 162 157 158 156 159 160 154 151 149 158 160 171 168 172 172 179 188 203 227 248 263 247 235 217
335 309 268 170 149 186 160 151 151 151 150 151 154 153 151 149 155 161 165 168 167 171 181 192 203 214 237 243 218 193 147 151
329 339 311 195 170 158 150 145 146 143 147 148 151 157 156 156 161 162 167 169 172 181 182 194 208 215 213 194 167 144 138 134
311 329 311 223 162 146 140 141 142 142 147 153 160 158 154 161 165 166 174 175 172 180 194 197 201 196 183 177 165 160 156 152
326 325 248 160 160 143 142 142 148 148 158 160 159 156 160 165 162 164 170 177 176 181 182 179 173 182 171 172 168 164 179 170
328 324 296 168 150 141 145 144 153 161 164 151 152 155 162 166 164 165 174 172 170 168 172 167 171 171 172 171 178 191 184 173
329 317 275 172 154 145 148 148 145 144 142 141 145 157 166 163 166 169 165 166 173 171 174 152 155 153 157 152 157 167 163 171
314 318 241 167 153 153 146 138 138 138 143 143 147 153 158 162 166 169 176 177 185 185 189 165 162 156 155 152 154 158 161 162
319 226 217 177 155 147 139 138 138 142 143 145 151 157 152 151 165 182 183 186 192 193 182 167 177 165 161 156 163 169 172 158
249 200 190 160 148 147 141 141 143 143 148 150 148 153 157 169 176 180 185 188 197 203 192 175 190 165 152 152 164 172 167 163
207 237 148 153 151 141 145 144 149 148 151 154 153 160 169 172 175 168 163 165 170 181 178 178 168 155 145 139 138 141 148 152
120 114 144 145 142 146 143 148 151 150 156 156 159 160 162 167 162 158 145 140 147 146 154 130 156 144 149 146 139 143 152 153
117 118 123 147 156 151 157 155 156 161 159 159 159 155 150 149 145 150 151 150 149 150 147 148 147 145 145 138 137 133 138 151
248 281 208 163 157 157 164 159 161 171 174 177 172 162 159 146 136 132 141 150 153 153 149 146 144 141 137 132 126 122 126 132
123 130 137 148 149 157 168 168 169 165 171 176 181 163 159 157 150 150 144 144 158 153 150 148 146 149 145 138 131 126 125 120
93 109 125 123 144 146 154 169 160 164 170 157 158 155 162 159 157 149 144 144 146 148 150 153 154 156 151 141 142 139 143 131
109 113 113 118 135 160 173 144 159 162 168 164 165 163 161 169 156 149 144 142 133 135 140 141 145 151 153 154 146 142 152 173